This is the latest recevied weather packets stored in our database for station/object WB5CFT. If no packets are shown the sender has not sent any weather packets the latest 10 day(s).
| Time | Temp. | Humidity | Pressure | Rain* | Wind** | Luminosity | Snow |
|---|---|---|---|---|---|---|---|
| 1777662479 | 11.67° C | 87% | 1017.7 hPa | 1.27 mm | - | 93 W/m² | - |
| 1777662175 | 11.67° C | 87% | 1017.5 hPa | 1.78 mm | - | 161 W/m² | - |
| 1777661870 | 12.22° C | 86% | 1017.5 hPa | 1.78 mm | - | 132 W/m² | - |
| 1777661566 | 12.22° C | 87% | 1017.4 hPa | 0 mm | - | 106 W/m² | - |
| 1777661263 | 12.22° C | 87% | 1017.5 hPa | 1.27 mm | - | 122 W/m² | - |
| 1777660958 | 12.22° C | 85% | 1017.3 hPa | 3.05 mm | - | 74 W/m² | - |
| 1777660654 | 12.78° C | 84% | 1017.4 hPa | 1.78 mm | - | 77 W/m² | - |
| 1777660352 | 12.78° C | 81% | 1017.2 hPa | 0 mm | - | 69 W/m² | - |
| 1777660048 | 12.78° C | 81% | 1017.5 hPa | 0 mm | - | 82 W/m² | - |
| 1777659745 | 13.33° C | 82% | 1017.1 hPa | 0 mm | - | 102 W/m² | - |
| 1777659441 | 12.78° C | 82% | 1017.2 hPa | 0 mm | - | 97 W/m² | - |
| 1777659139 | 12.78° C | 82% | 1017.2 hPa | 0 mm | - | 96 W/m² | - |
| 1777658837 | 12.78° C | 82% | 1017.1 hPa | 0 mm | - | 93 W/m² | - |
| 1777658527 | 12.78° C | 83% | 1017.2 hPa | 0 mm | - | 98 W/m² | - |
| 1777658224 | 12.78° C | 83% | 1017.1 hPa | 0 mm | - | 103 W/m² | - |
| 1777657921 | 12.78° C | 84% | 1017.1 hPa | 0 mm | - | 134 W/m² | - |
| 1777657617 | 13.33° C | 82% | 1017 hPa | 0 mm | - | 152 W/m² | - |
| 1777657314 | 12.78° C | 82% | 1017 hPa | 0 mm | - | 131 W/m² | - |
| 1777657012 | 13.33° C | 83% | 1017 hPa | 0 mm | - | 91 W/m² | - |
| 1777656704 | 12.78° C | 82% | 1017.2 hPa | 0 mm | - | 127 W/m² | - |
| 1777656399 | 12.78° C | 83% | 1017.2 hPa | 0 mm | - | 119 W/m² | - |
| 1777656095 | 12.78° C | 83% | 1017.3 hPa | 0 mm | - | 109 W/m² | - |
| 1777655791 | 12.78° C | 83% | 1017.1 hPa | 0 mm | - | 247 W/m² | - |
| 1777655488 | 12.78° C | 84% | 1017.1 hPa | 0 mm | - | 260 W/m² | - |
| 1777655185 | 12.78° C | 85% | 1017.2 hPa | 0 mm | - | 109 W/m² | - |
* Rain latest hour (hover to see other rain measurements)
** Current wind speed in m/s (hover to see current wind gust speed)